| time (UTC) | temp F | wind direction | speed knots | gust knots | rain 1hr in | rain 24hr in | rain mn in | humidity % | barometer mb |
| 20260506080506 | 50 | 87 | 4.3 | 9.6 | 0.00 | 0.00 | 0.00 | 42 | 1013.1 |
| 20260506073507 | 49 | 73 | 4.3 | 7.8 | 0.00 | 0.00 | 0.00 | 42 | 1013.1 |
| 20260506072500 | 48 | 92 | 5.2 | 13.0 | 0.00 | 0.00 | 0.00 | 42 | 1013.1 |
| 20260506071458 | 48 | 101 | 5.2 | 11.3 | 0.00 | 0.00 | 0.00 | 44 | 1013.0 |
| 20260506070455 | 48 | 78 | 5.2 | 11.3 | 0.00 | 0.00 | 0.00 | 43 | 1013.0 |
| 20260506062449 | 45 | 76 | 4.3 | 9.6 | 0.00 | 0.00 | 0.00 | 45 | 1012.9 |
| 20260506061449 | 44 | 74 | 5.2 | 9.6 | 0.00 | 0.00 | 0.00 | 44 | 1012.7 |
| 20260506060454 | 44 | 75 | 6.1 | 13.9 | 0.00 | 0.00 | 0.00 | 43 | 1012.8 |
| 20260506050437 | 41 | 71 | 6.1 | 8.7 | 0.00 | 0.00 | 0.00 | 56 | 1012.3 |
| 20260506044435 | 40 | 80 | 5.2 | 9.6 | 0.00 | 0.00 | 0.00 | 63 | 1012.2 |
| 20260506043435 | 39 | 77 | 5.2 | 8.7 | 0.00 | 0.00 | 0.00 | 65 | 1012.2 |
| 20260506041435 | 37 | 79 | 4.3 | 7.8 | 0.00 | 0.00 | 0.00 | 70 | 1012.1 |
| 20260506040437 | 36 | 78 | 4.3 | 6.1 | 0.00 | 0.00 | 0.00 | 72 | 1011.9 |
| 20260506035439 | 35 | 78 | 4.3 | 6.1 | 0.00 | 0.00 | 0.00 | 73 | 1011.9 |
| 20260506034438 | 34 | 76 | 4.3 | 6.1 | 0.00 | 0.00 | 0.00 | 73 | 1011.8 |
| 20260506033437 | 33 | 73 | 4.3 | 6.1 | 0.00 | 0.00 | 0.00 | 73 | 1011.9 |
| 20260506032432 | 33 | 75 | 4.3 | 5.2 | 0.00 | 0.00 | 0.00 | 74 | 1011.8 |
| 20260506031428 | 32 | 76 | 4.3 | 5.2 | 0.00 | 0.00 | 0.00 | 76 | 1011.8 |
| 20260506030421 | 32 | 71 | 3.5 | 4.3 | 0.00 | 0.00 | 0.00 | 75 | 1011.8 |
| 20260506025416 | 33 | 69 | 3.5 | 4.3 | 0.00 | 0.00 | 0.00 | 72 | 1011.8 |
| 20260506024427 | 33 | 65 | 2.6 | 4.3 | 0.00 | 0.00 | 0.00 | 71 | 1011.8 |
| 20260506023405 | 33 | 62 | 1.7 | 3.5 | 0.00 | 0.00 | 0.00 | 72 | 1011.9 |
| 20260506022406 | 33 | 62 | 2.6 | 3.5 | 0.00 | 0.00 | 0.00 | 73 | 1012.0 |
| 20260506021406 | 33 | 62 | 0.9 | 3.5 | 0.00 | 0.00 | 0.00 | 72 | 1011.9 |
| 20260506020412 | 33 | 61 | 2.6 | 4.3 | 0.00 | 0.00 | 0.00 | 71 | 1011.9 |
| 20260506015406 | 34 | 58 | 1.7 | 3.5 | 0.00 | 0.00 | 0.00 | 71 | 1011.9 |
| 20260506014409 | 34 | 57 | 1.7 | 3.5 | 0.00 | 0.00 | 0.00 | 71 | 1011.9 |
| 20260506013404 | 34 | 57 | 2.6 | 4.3 | 0.00 | 0.00 | 0.00 | 71 | 1011.7 |
| 20260506012407 | 34 | 47 | 0.9 | 4.3 | 0.00 | 0.00 | 0.00 | 75 | 1011.7 |
| 20260506011402 | 34 | 44 | 0.9 | 2.6 | 0.00 | 0.00 | 0.00 | 73 | 1011.4 |
| 20260506010352 | 33 | 44 | 1.7 | 3.5 | 0.00 | 0.00 | 0.00 | 77 | 1011.5 |
| 20260506005348 | 33 | 36 | 0.9 | 3.5 | 0.00 | 0.00 | 0.00 | 79 | 1011.5 |
| 20260506004342 | 33 | 30 | 0.9 | 3.5 | 0.00 | 0.00 | 0.00 | 79 | 1011.4 |
| 20260506003336 | 34 | 337 | 0.0 | 0.0 | 0.00 | 0.00 | 0.00 | 78 | 1011.4 |
| 20260506002336 | 34 | 337 | 0.0 | 0.0 | 0.00 | 0.00 | 0.00 | 76 | 1011.4 |
| 20260506000339 | 33 | 337 | 0.0 | 0.0 | 0.00 | 0.00 | 0.00 | 80 | 1011.3 |
| 20260505235335 | 34 | 337 | 0.0 | 0.0 | 0.00 | 0.00 | 0.00 | 79 | 1011.3 |
| 20260505234333 | 35 | 337 | 0.0 | 0.0 | 0.00 | 0.00 | 0.00 | 77 | 1011.4 |
| 20260505233335 | 35 | 337 | 0.0 | 0.0 | 0.00 | 0.00 | 0.00 | 75 | 1011.5 |
| 20260505232338 | 35 | 337 | 0.0 | 0.0 | 0.00 | 0.00 | 0.00 | 71 | 1011.5 |
| 20260505231338 | 36 | 337 | 0.0 | 0.0 | 0.00 | 0.00 | 0.00 | 66 | 1011.5 |
| 20260505230345 | 36 | 337 | 0.0 | 0.0 | 0.00 | 0.00 | 0.00 | 67 | 1011.5 |
| 20260505225337 | 36 | 337 | 0.0 | 0.0 | 0.00 | 0.00 | 0.00 | 70 | 1011.6 |
| 20260505224332 | 37 | 337 | 0.0 | 0.0 | 0.00 | 0.00 | 0.00 | 70 | 1011.6 |
| 20260505223334 | 37 | 337 | 0.0 | 0.0 | 0.00 | 0.00 | 0.00 | 66 | 1011.5 |
| 20260505222334 | 38 | 337 | 0.0 | 0.0 | 0.00 | 0.00 | 0.00 | 64 | 1011.5 |
| 20260505221331 | 38 | 337 | 0.0 | 0.0 | 0.00 | 0.00 | 0.00 | 65 | 1011.6 |
| 20260505220336 | 39 | 336 | 0.0 | 0.0 | 0.00 | 0.00 | 0.00 | 62 | 1011.6 |
| 20260505215329 | 40 | 336 | 0.0 | 1.7 | 0.00 | 0.00 | 0.00 | 62 | 1011.6 |
| 20260505214314 | 41 | 336 | 0.9 | 4.3 | 0.00 | 0.00 | 0.00 | 56 | 1011.7 |
| 20260505213307 | 41 | 331 | 0.9 | 1.7 | 0.00 | 0.00 | 0.00 | 53 | 1011.6 |
| 20260505212306 | 40 | 331 | 0.9 | 1.7 | 0.00 | 0.00 | 0.00 | 56 | 1011.6 |
| 20260505211307 | 39 | 321 | 0.9 | 1.7 | 0.00 | 0.00 | 0.00 | 63 | 1011.3 |
| 20260505210304 | 39 | 321 | 0.9 | 1.7 | 0.00 | 0.00 | 0.00 | 65 | 1011.3 |
| 20260505205313 | 40 | 321 | 0.0 | 0.9 | 0.00 | 0.00 | 0.00 | 66 | 1011.3 |
| 20260505204310 | 40 | 321 | 0.0 | 0.0 | 0.00 | 0.00 | 0.00 | 62 | 1011.2 |
| 20260505203307 | 40 | 321 | 0.0 | 1.7 | 0.00 | 0.00 | 0.00 | 62 | 1011.3 |
| 20260505202307 | 40 | 301 | 0.0 | 1.7 | 0.00 | 0.00 | 0.00 | 59 | 1011.3 |
| 20260505201303 | 41 | 288 | 0.0 | 0.9 | 0.00 | 0.00 | 0.00 | 58 | 1011.2 |
| 20260505200253 | 42 | 288 | 0.0 | 0.9 | 0.00 | 0.00 | 0.00 | 53 | 1011.2 |
| 20260505195246 | 43 | 288 | 0.0 | 0.0 | 0.00 | 0.00 | 0.00 | 49 | 1010.8 |
| 20260505194242 | 44 | 288 | 0.0 | 0.9 | 0.00 | 0.00 | 0.00 | 49 | 1010.9 |
| 20260505193235 | 45 | 288 | 0.9 | 1.7 | 0.00 | 0.00 | 0.00 | 46 | 1010.9 |
| 20260505192232 | 46 | 288 | 0.9 | 1.7 | 0.00 | 0.00 | 0.00 | 44 | 1010.9 |
| 20260505191232 | 47 | 288 | 0.9 | 1.7 | 0.00 | 0.00 | 0.00 | 43 | 1011.0 |
| 20260505190234 | 47 | 287 | 0.9 | 2.6 | 0.00 | 0.00 | 0.00 | 39 | 1010.8 |
| 20260505185232 | 47 | 287 | 0.9 | 2.6 | 0.00 | 0.00 | 0.00 | 46 | 1010.6 |
| 20260505184234 | 47 | 285 | 0.9 | 1.7 | 0.00 | 0.00 | 0.00 | 47 | 1010.6 |
| 20260505183232 | 48 | 285 | 0.0 | 1.7 | 0.00 | 0.00 | 0.00 | 48 | 1010.5 |
| 20260505182234 | 50 | 285 | 0.0 | 1.7 | 0.00 | 0.00 | 0.00 | 42 | 1010.4 |
| 20260505181233 | 51 | 285 | 0.9 | 1.7 | 0.00 | 0.00 | 0.00 | 37 | 1010.5 |
| 20260505180227 | 52 | 285 | 0.9 | 3.5 | 0.00 | 0.00 | 0.00 | 34 | 1010.6 |
| 20260505175221 | 53 | 249 | 0.9 | 3.5 | 0.00 | 0.00 | 0.00 | 31 | 1010.3 |
| 20260505174209 | 54 | 258 | 1.7 | 5.2 | 0.00 | 0.00 | 0.00 | 29 | 1010.3 |
| 20260505173210 | 54 | 296 | 0.9 | 1.7 | 0.00 | 0.00 | 0.00 | 28 | 1010.4 |
| 20260505172208 | 55 | 295 | 0.9 | 3.5 | 0.00 | 0.00 | 0.00 | 28 | 1010.4 |
| 20260505171205 | 55 | 314 | 1.7 | 6.1 | 0.00 | 0.00 | 0.00 | 26 | 1010.4 |
| 20260505165205 | 56 | 213 | 2.6 | 7.8 | 0.00 | 0.00 | 0.00 | 25 | 1010.4 |
| 20260505164208 | 56 | 244 | 3.5 | 7.8 | 0.00 | 0.00 | 0.00 | 26 | 1010.4 |
| 20260505163207 | 56 | 335 | 2.6 | 6.1 | 0.00 | 0.00 | 0.00 | 25 | 1010.4 |
| 20260505162206 | 56 | 269 | 2.6 | 7.0 | 0.00 | 0.00 | 0.00 | 27 | 1010.3 |
| 20260505161207 | 58 | 348 | 0.0 | 4.3 | 0.00 | 0.00 | 0.00 | 25 | 1010.4 |
| 20260505160201 | 57 | 80 | 1.7 | 5.2 | 0.00 | 0.00 | 0.00 | 24 | 1010.3 |
| 20260505153200 | 58 | 318 | 2.6 | 6.1 | 0.00 | 0.00 | 0.00 | 24 | 1010.5 |
| 20260505152154 | 58 | 331 | 2.6 | 7.8 | 0.00 | 0.00 | 0.00 | 25 | 1010.5 |
| 20260505151152 | 59 | 0 | 1.7 | 4.3 | 0.00 | 0.00 | 0.00 | 30 | 1010.5 |
| 20260505150157 | 57 | 255 | 3.5 | 7.8 | 0.00 | 0.00 | 0.00 | 25 | 1010.5 |
| 20260505140138 | 59 | 339 | 1.7 | 6.1 | 0.00 | 0.00 | 0.00 | 28 | 1010.7 |
| 20260505130134 | 56 | 275 | 3.5 | 7.8 | 0.00 | 0.00 | 0.00 | 35 | 1010.7 |
| 20260505124136 | 56 | 221 | 4.3 | 10.4 | 0.00 | 0.00 | 0.00 | 34 | 1010.7 |
| 20260505123135 | 56 | 333 | 4.3 | 9.6 | 0.00 | 0.00 | 0.00 | 34 | 1010.9 |
| 20260505122134 | 58 | 311 | 2.6 | 10.4 | 0.00 | 0.00 | 0.00 | 40 | 1010.9 |
| 20260505121131 | 55 | 200 | 3.5 | 7.8 | 0.00 | 0.00 | 0.00 | 35 | 1010.8 |
| 20260505120136 | 57 | 265 | 2.6 | 8.7 | 0.00 | 0.00 | 0.00 | 37 | 1010.9 |
| 20260505115132 | 56 | 265 | 3.5 | 8.7 | 0.00 | 0.00 | 0.00 | 38 | 1010.8 |
| 20260505114131 | 57 | 280 | 4.3 | 11.3 | 0.00 | 0.00 | 0.00 | 45 | 1010.8 |
| 20260505113132 | 55 | 224 | 3.5 | 7.0 | 0.00 | 0.00 | 0.00 | 40 | 1010.9 |
| 20260505112134 | 55 | 240 | 3.5 | 7.0 | 0.00 | 0.00 | 0.00 | 42 | 1011.0 |
| 20260505111135 | 54 | 227 | 4.3 | 8.7 | 0.00 | 0.00 | 0.00 | 42 | 1011.0 |
| 20260505110132 | 55 | 315 | 4.3 | 8.7 | 0.00 | 0.00 | 0.00 | 41 | 1011.0 |
| 20260505102134 | 54 | 322 | 5.2 | 10.4 | 0.00 | 0.00 | 0.00 | 40 | 1010.9 |
| 20260505101136 | 54 | 279 | 4.3 | 9.6 | 0.00 | 0.00 | 0.00 | 40 | 1010.9 |
| 20260505100135 | 53 | 262 | 4.3 | 13.9 | 0.00 | 0.00 | 0.00 | 42 | 1010.8 |
| 20260505095131 | 53 | 293 | 4.3 | 9.6 | 0.00 | 0.00 | 0.00 | 46 | 1010.9 |
| 20260505094122 | 53 | 261 | 4.3 | 13.9 | 0.00 | 0.00 | 0.00 | 45 | 1010.9 |
| 20260505093122 | 52 | 321 | 5.2 | 10.4 | 0.00 | 0.00 | 0.00 | 50 | 1010.8 |
| 20260505092125 | 52 | 302 | 4.3 | 10.4 | 0.00 | 0.00 | 0.00 | 46 | 1010.8 |
| 20260505091104 | 52 | 275 | 3.5 | 11.3 | 0.00 | 0.00 | 0.00 | 50 | 1010.8 |
| 20260505090109 | 52 | 306 | 3.5 | 10.4 | 0.00 | 0.00 | 0.00 | 51 | 1010.8 |
| 20260505085105 | 51 | 257 | 5.2 | 9.6 | 0.00 | 0.00 | 0.00 | 58 | 1010.7 |
| 20260505084106 | 51 | 243 | 4.3 | 10.4 | 0.00 | 0.00 | 0.00 | 56 | 1010.7 |
| 20260505083103 | 51 | 238 | 4.3 | 10.4 | 0.00 | 0.00 | 0.00 | 59 | 1010.7 |
| 20260505082106 | 50 | 300 | 3.5 | 7.0 | 0.00 | 0.00 | 0.00 | 61 | 1010.7 |
| 20260505081059 | 49 | 242 | 4.3 | 10.4 | 0.00 | 0.00 | 0.00 | 63 | 1010.6 |